Location: Beang
(6.6177°N, 10.9863°W)
Time: 23:31:01
(UTC+00:00)

Cosmos 967 Rocket - Pass Details

Date: 07 June 2020
Orbit: 945 x 993 km, 65.8° (Epoch: 10 July)

Event Time Altitude Azimuth Distance (km) Brightness Sun altitude
Exits shadow 04:19:38 81° 175° (S) 996 4.4 -29.4°
Maximum altitude 04:19:58 86° 110° (ESE) 987 4.4 -29.3°
Drops below altitude 10° 04:26:24 10° 22° (NNE) 2,740 7.5 -28.0°
Sets 04:28:59 0° 22° (NNE) 3,690 8.3 -27.4°
